GW0774 Weather Reports


time (UTC)temp
C
wind
direction
speed
KPH
gust
KPH
rain 1hr
cm
rain 24hr
cm
rain mn
cm
humidity
%
barometer
mb
20260503203536 11 80 0.0 3.2 0.00 0.00 0.00 90 1034.2
20260503203052 11 80 0.0 3.2 0.00 0.00 0.00 90 1034.2
20260503202537 11 0 0.0 3.2 0.00 0.00 0.00 91 1034.2
20260503202036 11 79 0.0 3.2 0.00 0.00 0.00 91 1034.1
20260503201545 11 79 0.0 1.6 0.00 0.00 0.00 91 1034.1
20260503201038 11 0 0.0 1.6 0.00 0.00 0.00 91 1034.1
20260503200536 11 0 0.0 1.6 0.00 0.00 0.00 91 1034.0
20260503200044 11 0 0.0 1.6 0.00 0.00 0.00 91 1034.0
20260503195536 11 0 0.0 3.2 0.00 0.00 0.00 92 1033.8
20260503195039 11 0 0.0 3.2 0.00 0.00 0.00 92 1034.0
20260503194555 11 76 0.0 4.8 0.00 0.00 0.00 92 1033.9
20260503194037 11 0 0.0 4.8 0.00 0.00 0.00 92 1033.9
20260503193536 11 75 0.0 3.2 0.00 0.00 0.00 92 1033.7
20260503193054 11 0 0.0 3.2 0.00 0.00 0.00 92 1033.7
20260503192536 11 85 0.0 1.6 0.00 0.00 0.00 92 1033.7
20260503192036 11 0 0.0 1.6 0.00 0.00 0.00 92 1033.6
20260503191606 11 0 0.0 1.6 0.00 0.00 0.00 92 1033.7
20260503191039 11 0 0.0 1.6 0.00 0.00 0.00 92 1033.6
20260503190537 11 85 0.0 6.4 0.00 0.00 0.00 92 1033.6
20260503190044 11 83 0.0 8.0 0.00 0.00 0.00 92 1033.6
20260503185536 11 74 4.8 8.0 0.00 0.00 0.00 93 1033.5
20260503185036 11 0 0.0 4.8 0.00 0.00 0.00 93 1033.6
20260503184552 10 37 0.0 3.2 0.00 0.00 0.00 93 1033.6
20260503184038 10 0 0.0 1.6 0.00 0.00 0.00 93 1033.5
20260503183535 10 0 0.0 1.6 0.00 0.00 0.00 93 1033.7
20260503183049 10 0 0.0 1.6 0.00 0.00 0.00 93 1033.6
20260503182536 10 0 0.0 1.6 0.00 0.00 0.00 93 1033.5
20260503182035 10 0 0.0 1.6 0.00 0.00 0.00 93 1033.4
20260503181552 10 0 0.0 1.6 0.00 0.00 0.00 93 1033.6
20260503181035 10 73 0.0 6.4 0.00 0.00 0.00 93 1033.6
20260503180538 11 73 0.0 6.4 0.00 0.00 0.00 94 1033.5
20260503180056 10 67 0.0 6.4 0.00 0.00 0.00 94 1033.4
20260503175538 10 79 0.0 3.2 0.00 0.00 0.00 94 1033.4
20260503175038 10 79 0.0 1.6 0.00 0.00 0.00 94 1033.4
20260503174554 10 145 0.0 1.6 0.00 0.00 0.00 94 1033.4
20260503174036 10 0 0.0 1.6 0.00 0.00 0.00 94 1033.4
20260503173536 10 0 0.0 1.6 0.00 0.00 0.00 94 1033.6
20260503173049 10 81 0.0 1.6 0.00 0.00 0.00 94 1033.5
20260503172535 10 0 0.0 1.6 0.00 0.00 0.00 94 1033.6
20260503172036 10 0 0.0 0.0 0.00 0.00 0.00 94 1033.5
20260503171556 10 0 0.0 0.0 0.00 0.00 0.00 94 1033.4
20260503171036 10 0 0.0 1.6 0.00 0.00 0.00 94 1033.5
20260503170536 10 0 0.0 3.2 0.00 0.00 0.00 94 1033.5
20260503160104 9 111 0.0 1.6 0.00 0.00 0.00 95 1033.6
20260503150536 9 0 0.0 0.0 0.00 0.00 0.00 95 1033.8
20260503131035 8 0 0.0 3.2 0.00 0.00 0.00 95 1034.1
20260503130535 8 228 0.0 1.6 0.00 0.00 0.00 95 1034.1
20260503110535 8 0 0.0 1.6 0.00 0.00 0.00 95 1033.5
20260503081543 7 0 0.0 0.0 0.00 0.00 0.00 94 1033.0
20260503081039 7 0 0.0 0.0 0.00 0.00 0.00 94 1032.8
20260503080539 7 0 0.0 0.0 0.00 0.00 0.00 94 1033.0
20260503072538 7 0 0.0 0.0 0.00 0.00 0.00 92 1032.9
20260503072041 8 0 0.0 0.0 0.00 0.00 0.00 92 1033.0
20260503071549 8 0 0.0 0.0 0.00 0.00 0.00 92 1032.8
20260503071038 8 0 0.0 0.0 0.00 0.00 0.00 92 1032.9
20260503070535 8 0 0.0 0.0 0.00 0.00 0.00 91 1032.8
20260503055039 11 0 0.0 0.0 0.00 0.00 0.00 86 1032.8
20260503054605 11 0 0.0 0.0 0.00 0.00 0.00 85 1032.8
20260503054038 11 0 0.0 0.0 0.00 0.00 0.00 85 1032.8
20260503053538 11 0 0.0 0.0 0.00 0.00 0.00 85 1032.8
20260503053053 11 0 0.0 1.6 0.00 0.00 0.00 85 1032.7
20260503052539 11 0 0.0 1.6 0.00 0.00 0.00 84 1032.8
20260503052038 12 237 0.0 1.6 0.00 0.00 0.00 83 1032.8
20260503051549 12 237 1.6 1.6 0.00 0.00 0.00 82 1032.7
20260503051038 12 237 1.6 1.6 0.00 0.00 0.00 81 1032.7
20260503050539 12 237 0.0 3.2 0.00 0.00 0.00 80 1032.8
20260503050048 13 237 1.6 3.2 0.00 0.00 0.00 79 1032.8
20260503045542 13 237 1.6 3.2 0.00 0.00 0.00 78 1032.8
20260503045039 14 237 3.2 3.2 0.00 0.00 0.00 78 1032.8
20260503044552 14 237 1.6 4.8 0.00 0.00 0.00 78 1032.8
20260503044040 14 237 1.6 4.8 0.00 0.00 0.00 77 1032.7
20260503043538 15 237 1.6 6.4 0.00 0.00 0.00 77 1032.7
20260503043053 15 237 3.2 6.4 0.00 0.00 0.00 77 1032.7
20260503042538 15 237 3.2 9.7 0.00 0.00 0.00 77 1032.7
20260503042038 15 237 4.8 9.7 0.00 0.00 0.00 76 1032.7
20260503041548 15 235 4.8 9.7 0.00 0.00 0.00 76 1032.6
20260503041041 15 236 6.4 12.9 0.00 0.00 0.00 76 1032.5
20260503040538 15 235 6.4 12.9 0.00 0.00 0.00 76 1032.5
20260503040054 15 267 6.4 12.9 0.00 0.00 0.00 75 1032.5
20260503035539 15 235 6.4 12.9 0.00 0.00 0.00 75 1032.5
20260503035039 15 229 6.4 11.3 0.00 0.00 0.00 74 1032.5
20260503034548 15 227 6.4 11.3 0.00 0.00 0.00 74 1032.5
20260503034038 15 223 6.4 12.9 0.00 0.00 0.00 74 1032.5
20260503033612 15 232 6.4 12.9 0.00 0.00 0.00 74 1032.4
20260503033046 15 242 6.4 14.5 0.00 0.00 0.00 74 1032.4
20260503032538 15 244 8.0 16.1 0.00 0.00 0.00 73 1032.3
20260503032038 16 270 9.7 16.1 0.00 0.00 0.00 72 1032.3
20260503031546 16 238 6.4 12.9 0.00 0.00 0.00 72 1032.4
20260503031039 16 234 6.4 12.9 0.00 0.00 0.00 74 1032.4
20260503030538 16 233 4.8 9.7 0.00 0.00 0.00 71 1032.3
20260503030043 16 239 3.2 11.3 0.00 0.00 0.00 69 1032.3
20260503025539 16 272 4.8 11.3 0.00 0.00 0.00 70 1032.4
20260503025039 16 254 4.8 9.7 0.00 0.00 0.00 69 1032.5
20260503024549 16 240 4.8 6.4 0.00 0.00 0.00 68 1032.4
20260503024041 16 260 3.2 6.4 0.00 0.00 0.00 68 1032.4
20260503023541 16 232 0.0 6.4 0.00 0.00 0.00 71 1032.5
20260503023054 16 230 1.6 6.4 0.00 0.00 0.00 71 1032.5
20260503022540 16 240 3.2 6.4 0.00 0.00 0.00 70 1032.6
20260503022040 16 0 3.2 6.4 0.00 0.00 0.00 70 1032.6
20260503021546 16 225 1.6 8.0 0.00 0.00 0.00 71 1032.5
20260503021040 15 225 1.6 8.0 0.00 0.00 0.00 71 1032.6
20260503020540 15 226 1.6 8.0 0.00 0.00 0.00 73 1032.5
20260503020043 15 231 3.2 8.0 0.00 0.00 0.00 71 1032.5
20260503015544 15 215 1.6 8.0 0.00 0.00 0.00 71 1032.5
20260503015040 15 215 6.4 8.0 0.00 0.00 0.00 72 1032.5
20260503014551 15 225 3.2 8.0 0.00 0.00 0.00 72 1032.5
20260503014041 15 252 3.2 6.4 0.00 0.00 0.00 72 1032.6
20260503013540 15 239 3.2 12.9 0.00 0.00 0.00 72 1032.6
20260503013050 15 229 6.4 12.9 0.00 0.00 0.00 72 1032.6
20260503012540 15 262 4.8 11.3 0.00 0.00 0.00 71 1032.8
20260503012040 15 236 3.2 11.3 0.00 0.00 0.00 73 1032.8
20260503011548 15 221 3.2 8.0 0.00 0.00 0.00 72 1032.9
20260503011044 15 257 4.8 8.0 0.00 0.00 0.00 72 1032.9
20260503010540 15 229 3.2 6.4 0.00 0.00 0.00 73 1032.9
20260503010050 15 224 1.6 8.0 0.00 0.00 0.00 73 1033.0
20260503005541 15 223 3.2 8.0 0.00 0.00 0.00 73 1033.1
20260503005041 15 223 3.2 11.3 0.00 0.00 0.00 72 1033.2
20260503004547 15 240 3.2 12.9 0.00 0.00 0.00 74 1033.2
20260503004040 15 248 4.8 12.9 0.00 0.00 0.00 72 1033.2
20260503003540 15 229 1.6 6.4 0.00 0.00 0.00 72 1033.2
20260503003056 15 210 1.6 8.0 0.00 0.00 0.00 71 1033.2
20260503002539 15 220 3.2 8.0 0.00 0.00 0.00 71 1033.2
20260503002039 15 51 1.6 6.4 0.00 0.00 0.00 71 1033.3
20260503001551 15 71 1.6 6.4 0.00 0.00 0.00 72 1033.3
20260503001038 15 254 1.6 4.8 0.00 0.00 0.00 72 1033.5
20260503000538 15 244 1.6 9.7 0.00 0.00 0.00 73 1033.6
20260503000047 15 258 4.8 9.7 0.00 0.00 0.00 72 1033.7
20260502235538 15 253 1.6 6.4 0.00 0.00 0.00 73 1033.7
20260502235039 15 0 1.6 6.4 0.00 0.00 0.00 73 1033.8
20260502234552 15 253 3.2 8.0 0.00 0.00 0.00 73 1033.8
20260502234039 15 224 0.0 8.0 0.00 0.00 0.00 73 1033.7
20260502233539 15 65 4.8 8.0 0.00 0.00 0.00 72 1033.7
20260502233045 15 278 0.0 4.8 0.00 0.00 0.00 74 1033.9
20260502232538 14 0 0.0 6.4 0.00 0.00 0.00 74 1034.0
20260502232039 14 278 1.6 6.4 0.00 0.00 0.00 74 1034.0
20260502231554 14 318 1.6 6.4 0.00 0.00 0.00 72 1034.1
20260502231037 14 248 0.0 6.4 0.00 0.00 0.00 74 1034.0
20260502230536 13 248 1.6 6.4 0.00 0.00 0.00 76 1034.1
20260502230052 13 248 3.2 6.4 0.00 0.00 0.00 74 1034.1
20260502225537 14 263 3.2 4.8 0.00 0.00 0.00 74 1034.2
20260502225037 13 71 1.6 6.4 0.00 0.00 0.00 74 1034.2
20260502224550 13 338 1.6 6.4 0.00 0.00 0.00 74 1034.2
20260502224037 13 81 1.6 6.4 0.00 0.00 0.00 75 1034.4
20260502223536 13 91 1.6 9.7 0.00 0.00 0.00 76 1034.4
20260502223045 13 67 0.0 9.7 0.00 0.00 0.00 76 1034.5
20260502222536 13 67 4.8 9.7 0.00 0.00 0.00 76 1034.6
20260502222035 13 65 3.2 6.4 0.00 0.00 0.00 78 1034.6
20260502221552 13 72 1.6 8.0 0.00 0.00 0.00 81 1034.6
20260502221037 13 67 1.6 8.0 0.00 0.00 0.00 84 1034.6
20260502220536 13 85 3.2 8.0 0.00 0.00 0.00 84 1034.6
20260502220048 12 64 1.6 8.0 0.00 0.00 0.00 87 1034.6
20260502215535 12 72 3.2 8.0 0.00 0.00 0.00 87 1034.5
20260502215036 12 84 3.2 6.4 0.00 0.00 0.00 89 1034.7
20260502214557 12 79 1.6 6.4 0.00 0.00 0.00 90 1034.6
20260502214036 11 82 1.6 6.4 0.00 0.00 0.00 91 1034.5
20260502213539 11 103 1.6 6.4 0.00 0.00 0.00 92 1034.6
20260502213046 11 85 0.0 4.8 0.00 0.00 0.00 93 1034.6
20260502212536 11 89 0.0 4.8 0.00 0.00 0.00 93 1034.6
20260502212036 11 71 1.6 3.2 0.00 0.00 0.00 93 1034.7
20260502211549 11 82 0.0 3.2 0.00 0.00 0.00 94 1034.7
20260502211042 10 82 0.0 3.2 0.00 0.00 0.00 93 1034.7
20260502210539 10 86 0.0 4.8 0.00 0.00 0.00 94 1034.8
20260502210056 10 86 1.6 4.8 0.00 0.00 0.00 94 1034.7
20260502205540 10 0 1.6 4.8 0.00 0.00 0.00 94 1034.7
20260502205040 10 75 1.6 3.2 0.00 0.00 0.00 94 1034.8
20260502204554 9 104 1.6 3.2 0.00 0.00 0.00 94 1034.7
20260502204040 9 104 0.0 3.2 0.00 0.00 0.00 95 1034.7